﻿測定場所 (Monitoring sites),日付 (Measurement date),時間 (Measurement time),線量率 最大値 (max) μGy/h,線量率 最小値 (min) μGy/h,線量率 平均値 (average) μGy/h,
調布 (Chofu),2015-12-06,23:01～24:00,0.0334,0.0289,0.0309,
調布 (Chofu),2015-12-06,22:01～23:00,0.0327,0.0292,0.0308,
調布 (Chofu),2015-12-06,21:01～22:00,0.0325,0.0288,0.0306,
調布 (Chofu),2015-12-06,20:01～21:00,0.0324,0.0282,0.0308,
調布 (Chofu),2015-12-06,19:01～20:00,0.0329,0.0283,0.0304,
調布 (Chofu),2015-12-06,18:01～19:00,0.0323,0.0285,0.0305,
調布 (Chofu),2015-12-06,17:01～18:00,0.0323,0.0287,0.0305,
調布 (Chofu),2015-12-06,16:01～17:00,0.0323,0.0284,0.0303,
調布 (Chofu),2015-12-06,15:01～16:00,0.0331,0.0286,0.0306,
調布 (Chofu),2015-12-06,14:01～15:00,0.0321,0.0285,0.0304,
調布 (Chofu),2015-12-06,13:01～14:00,0.0321,0.0287,0.0305,
調布 (Chofu),2015-12-06,12:01～13:00,0.0322,0.0287,0.0308,
調布 (Chofu),2015-12-06,11:01～12:00,0.0334,0.0285,0.0311,
調布 (Chofu),2015-12-06,10:01～11:00,0.0329,0.0292,0.0311,
調布 (Chofu),2015-12-06,09:01～10:00,0.0325,0.0290,0.0309,
調布 (Chofu),2015-12-06,08:01～09:00,0.0324,0.0286,0.0308,
調布 (Chofu),2015-12-06,07:01～08:00,0.0337,0.0289,0.0306,
調布 (Chofu),2015-12-06,06:01～07:00,0.0327,0.0286,0.0306,
調布 (Chofu),2015-12-06,05:01～06:00,0.0339,0.0294,0.0317,
調布 (Chofu),2015-12-06,04:01～05:00,0.0340,0.0304,0.0324,
調布 (Chofu),2015-12-06,03:01～04:00,0.0359,0.0302,0.0327,
調布 (Chofu),2015-12-06,02:01～03:00,0.0347,0.0306,0.0329,
調布 (Chofu),2015-12-06,01:01～02:00,0.0346,0.0304,0.0325,
調布 (Chofu),2015-12-06,00:01～01:00,0.0354,0.0303,0.0321,
調布 (Chofu),2015-12-05,23:01～24:00,0.0341,0.0295,0.0318,
調布 (Chofu),2015-12-05,22:01～23:00,0.0334,0.0297,0.0317,
調布 (Chofu),2015-12-05,21:01～22:00,0.0337,0.0299,0.0315,
調布 (Chofu),2015-12-05,20:01～21:00,0.0327,0.0294,0.0312,
調布 (Chofu),2015-12-05,19:01～20:00,0.0325,0.0292,0.0309,
調布 (Chofu),2015-12-05,18:01～19:00,0.0327,0.0290,0.0306,
調布 (Chofu),2015-12-05,17:01～18:00,0.0328,0.0279,0.0304,
調布 (Chofu),2015-12-05,16:01～17:00,0.0324,0.0281,0.0301,
調布 (Chofu),2015-12-05,15:01～16:00,0.0329,0.0288,0.0306,
調布 (Chofu),2015-12-05,14:01～15:00,0.0327,0.0279,0.0303,
調布 (Chofu),2015-12-05,13:01～14:00,0.0327,0.0277,0.0303,
調布 (Chofu),2015-12-05,12:01～13:00,0.0334,0.0287,0.0307,
調布 (Chofu),2015-12-05,11:01～12:00,0.0331,0.0290,0.0309,
調布 (Chofu),2015-12-05,10:01～11:00,0.0336,0.0301,0.0317,
調布 (Chofu),2015-12-05,09:01～10:00,0.0344,0.0299,0.0319,
調布 (Chofu),2015-12-05,08:01～09:00,0.0346,0.0306,0.0327,
調布 (Chofu),2015-12-05,07:01～08:00,0.0349,0.0310,0.0331,
調布 (Chofu),2015-12-05,06:01～07:00,0.0349,0.0303,0.0327,
調布 (Chofu),2015-12-05,05:01～06:00,0.0350,0.0309,0.0328,
調布 (Chofu),2015-12-05,04:01～05:00,0.0347,0.0305,0.0328,
調布 (Chofu),2015-12-05,03:01～04:00,0.0346,0.0302,0.0325,
調布 (Chofu),2015-12-05,02:01～03:00,0.0339,0.0295,0.0321,
調布 (Chofu),2015-12-05,01:01～02:00,0.0337,0.0295,0.0321,
調布 (Chofu),2015-12-05,00:01～01:00,0.0346,0.0301,0.0319,
調布 (Chofu),2015-12-04,23:01～24:00,0.0344,0.0296,0.0316,
調布 (Chofu),2015-12-04,22:01～23:00,0.0334,0.0292,0.0314,
調布 (Chofu),2015-12-04,21:01～22:00,0.0342,0.0300,0.0320,
調布 (Chofu),2015-12-04,20:01～21:00,0.0341,0.0291,0.0316,
調布 (Chofu),2015-12-04,19:01～20:00,0.0346,0.0296,0.0319,
調布 (Chofu),2015-12-04,18:01～19:00,0.0337,0.0290,0.0320,
調布 (Chofu),2015-12-04,17:01～18:00,0.0349,0.0293,0.0320,
調布 (Chofu),2015-12-04,16:01～17:00,0.0342,0.0302,0.0323,
調布 (Chofu),2015-12-04,15:01～16:00,0.0342,0.0299,0.0324,
調布 (Chofu),2015-12-04,14:01～15:00,0.0345,0.0303,0.0322,
調布 (Chofu),2015-12-04,13:01～14:00,0.0342,0.0299,0.0322,
調布 (Chofu),2015-12-04,12:01～13:00,0.0339,0.0303,0.0322,
調布 (Chofu),2015-12-04,11:01～12:00,0.0354,0.0302,0.0320,
調布 (Chofu),2015-12-04,10:01～11:00,0.0341,0.0297,0.0318,
調布 (Chofu),2015-12-04,09:01～10:00,0.0336,0.0294,0.0314,
調布 (Chofu),2015-12-04,08:01～09:00,0.0327,0.0294,0.0309,
調布 (Chofu),2015-12-04,07:01～08:00,0.0326,0.0283,0.0308,
調布 (Chofu),2015-12-04,06:01～07:00,0.0332,0.0285,0.0308,
調布 (Chofu),2015-12-04,05:01～06:00,0.0322,0.0294,0.0310,
調布 (Chofu),2015-12-04,04:01～05:00,0.0328,0.0287,0.0307,
調布 (Chofu),2015-12-04,03:01～04:00,0.0337,0.0289,0.0307,
調布 (Chofu),2015-12-04,02:01～03:00,0.0325,0.0288,0.0308,
調布 (Chofu),2015-12-04,01:01～02:00,0.0334,0.0287,0.0307,
調布 (Chofu),2015-12-04,00:01～01:00,0.0329,0.0289,0.0311,
調布 (Chofu),2015-12-03,23:01～24:00,0.0336,0.0278,0.0309,
調布 (Chofu),2015-12-03,22:01～23:00,0.0329,0.0286,0.0310,
調布 (Chofu),2015-12-03,21:01～22:00,0.0333,0.0298,0.0315,
調布 (Chofu),2015-12-03,20:01～21:00,0.0329,0.0292,0.0309,
調布 (Chofu),2015-12-03,19:01～20:00,0.0332,0.0288,0.0312,
調布 (Chofu),2015-12-03,18:01～19:00,0.0332,0.0288,0.0310,
調布 (Chofu),2015-12-03,17:01～18:00,0.0335,0.0292,0.0311,
調布 (Chofu),2015-12-03,16:01～17:00,0.0339,0.0301,0.0319,
調布 (Chofu),2015-12-03,15:01～16:00,0.0333,0.0301,0.0316,
調布 (Chofu),2015-12-03,14:01～15:00,0.0336,0.0296,0.0316,
調布 (Chofu),2015-12-03,13:01～14:00,0.0334,0.0294,0.0315,
調布 (Chofu),2015-12-03,12:01～13:00,0.0351,0.0296,0.0325,
調布 (Chofu),2015-12-03,11:01～12:00,0.0346,0.0308,0.0326,
調布 (Chofu),2015-12-03,10:01～11:00,0.0357,0.0318,0.0331,
調布 (Chofu),2015-12-03,09:01～10:00,0.0360,0.0313,0.0335,
調布 (Chofu),2015-12-03,08:01～09:00,0.0351,0.0301,0.0325,
調布 (Chofu),2015-12-03,07:01～08:00,0.0339,0.0296,0.0313,
調布 (Chofu),2015-12-03,06:01～07:00,0.0334,0.0292,0.0313,
調布 (Chofu),2015-12-03,05:01～06:00,0.0340,0.0300,0.0319,
調布 (Chofu),2015-12-03,04:01～05:00,0.0352,0.0302,0.0320,
調布 (Chofu),2015-12-03,03:01～04:00,0.0373,0.0314,0.0347,
調布 (Chofu),2015-12-03,02:01～03:00,0.0378,0.0304,0.0341,
調布 (Chofu),2015-12-03,01:01～02:00,0.0337,0.0283,0.0310,
調布 (Chofu),2015-12-03,00:01～01:00,0.0324,0.0288,0.0307,
調布 (Chofu),2015-12-02,23:01～24:00,0.0331,0.0292,0.0307,
調布 (Chofu),2015-12-02,22:01～23:00,0.0332,0.0286,0.0305,
調布 (Chofu),2015-12-02,21:01～22:00,0.0330,0.0284,0.0308,
調布 (Chofu),2015-12-02,20:01～21:00,0.0324,0.0289,0.0305,
調布 (Chofu),2015-12-02,19:01～20:00,0.0321,0.0285,0.0305,
調布 (Chofu),2015-12-02,18:01～19:00,0.0321,0.0290,0.0305,
調布 (Chofu),2015-12-02,17:01～18:00,0.0324,0.0291,0.0308,
調布 (Chofu),2015-12-02,16:01～17:00,0.0332,0.0290,0.0310,
調布 (Chofu),2015-12-02,15:01～16:00,0.0331,0.0288,0.0311,
調布 (Chofu),2015-12-02,14:01～15:00,0.0336,0.0288,0.0311,
調布 (Chofu),2015-12-02,13:01～14:00,0.0336,0.0288,0.0312,
調布 (Chofu),2015-12-02,12:01～13:00,0.0344,0.0294,0.0312,
調布 (Chofu),2015-12-02,11:01～12:00,0.0329,0.0293,0.0310,
調布 (Chofu),2015-12-02,10:01～11:00,0.0348,0.0296,0.0316,
調布 (Chofu),2015-12-02,09:01～10:00,0.0338,0.0308,0.0321,
調布 (Chofu),2015-12-02,08:01～09:00,0.0338,0.0298,0.0320,
調布 (Chofu),2015-12-02,07:01～08:00,0.0335,0.0297,0.0318,
調布 (Chofu),2015-12-02,06:01～07:00,0.0333,0.0283,0.0314,
調布 (Chofu),2015-12-02,05:01～06:00,0.0333,0.0280,0.0312,
調布 (Chofu),2015-12-02,04:01～05:00,0.0334,0.0292,0.0308,
調布 (Chofu),2015-12-02,03:01～04:00,0.0325,0.0290,0.0306,
調布 (Chofu),2015-12-02,02:01～03:00,0.0323,0.0290,0.0307,
調布 (Chofu),2015-12-02,01:01～02:00,0.0330,0.0280,0.0306,
調布 (Chofu),2015-12-02,00:01～01:00,0.0328,0.0294,0.0308,
調布 (Chofu),2015-12-01,23:01～24:00,0.0324,0.0282,0.0304,
調布 (Chofu),2015-12-01,22:01～23:00,0.0329,0.0285,0.0304,
調布 (Chofu),2015-12-01,21:01～22:00,0.0321,0.0286,0.0303,
調布 (Chofu),2015-12-01,20:01～21:00,0.0333,0.0282,0.0304,
調布 (Chofu),2015-12-01,19:01～20:00,0.0332,0.0282,0.0304,
調布 (Chofu),2015-12-01,18:01～19:00,0.0325,0.0283,0.0303,
調布 (Chofu),2015-12-01,17:01～18:00,0.0325,0.0287,0.0304,
調布 (Chofu),2015-12-01,16:01～17:00,0.0320,0.0282,0.0305,
調布 (Chofu),2015-12-01,15:01～16:00,0.0332,0.0288,0.0306,
調布 (Chofu),2015-12-01,14:01～15:00,0.0330,0.0289,0.0310,
調布 (Chofu),2015-12-01,13:01～14:00,0.0332,0.0288,0.0308,
調布 (Chofu),2015-12-01,12:01～13:00,0.0332,0.0288,0.0310,
調布 (Chofu),2015-12-01,11:01～12:00,0.0342,0.0292,0.0314,
調布 (Chofu),2015-12-01,10:01～11:00,0.0342,0.0300,0.0318,
調布 (Chofu),2015-12-01,09:01～10:00,0.0350,0.0298,0.0326,
調布 (Chofu),2015-12-01,08:01～09:00,0.0349,0.0307,0.0333,
調布 (Chofu),2015-12-01,07:01～08:00,0.0363,0.0316,0.0339,
調布 (Chofu),2015-12-01,06:01～07:00,0.0358,0.0313,0.0336,
調布 (Chofu),2015-12-01,05:01～06:00,0.0355,0.0306,0.0333,
調布 (Chofu),2015-12-01,04:01～05:00,0.0358,0.0310,0.0334,
調布 (Chofu),2015-12-01,03:01～04:00,0.0351,0.0310,0.0332,
調布 (Chofu),2015-12-01,02:01～03:00,0.0355,0.0302,0.0328,
調布 (Chofu),2015-12-01,01:01～02:00,0.0354,0.0306,0.0329,
調布 (Chofu),2015-12-01,00:01～01:00,0.0351,0.0308,0.0328,
調布 (Chofu),2015-11-30,23:01～24:00,0.0350,0.0303,0.0323,
調布 (Chofu),2015-11-30,22:01～23:00,0.0352,0.0296,0.0323,
調布 (Chofu),2015-11-30,21:01～22:00,0.0334,0.0298,0.0315,
調布 (Chofu),2015-11-30,20:01～21:00,0.0337,0.0289,0.0309,
調布 (Chofu),2015-11-30,19:01～20:00,0.0328,0.0288,0.0309,
調布 (Chofu),2015-11-30,18:01～19:00,0.0330,0.0292,0.0307,
調布 (Chofu),2015-11-30,17:01～18:00,0.0324,0.0291,0.0306,
調布 (Chofu),2015-11-30,16:01～17:00,0.0328,0.0282,0.0305,
調布 (Chofu),2015-11-30,15:01～16:00,0.0326,0.0285,0.0304,
調布 (Chofu),2015-11-30,14:01～15:00,0.0325,0.0288,0.0306,
調布 (Chofu),2015-11-30,13:01～14:00,0.0326,0.0284,0.0306,
調布 (Chofu),2015-11-30,12:01～13:00,0.0329,0.0288,0.0308,
調布 (Chofu),2015-11-30,11:01～12:00,0.0341,0.0290,0.0310,
調布 (Chofu),2015-11-30,10:01～11:00,0.0332,0.0291,0.0313,
調布 (Chofu),2015-11-30,09:01～10:00,0.0337,0.0291,0.0311,
調布 (Chofu),2015-11-30,08:01～09:00,0.0332,0.0289,0.0311,
調布 (Chofu),2015-11-30,07:01～08:00,0.0330,0.0294,0.0312,
調布 (Chofu),2015-11-30,06:01～07:00,0.0330,0.0285,0.0309,
調布 (Chofu),2015-11-30,05:01～06:00,0.0327,0.0292,0.0310,
調布 (Chofu),2015-11-30,04:01～05:00,0.0330,0.0293,0.0310,
調布 (Chofu),2015-11-30,03:01～04:00,0.0337,0.0289,0.0310,
調布 (Chofu),2015-11-30,02:01～03:00,0.0335,0.0292,0.0312,
調布 (Chofu),2015-11-30,01:01～02:00,0.0335,0.0288,0.0311,
調布 (Chofu),2015-11-30,00:01～01:00,0.0336,0.0294,0.0313,
